START_TIME,STEP,MOV.,M29,t_acc.,H22,t_acc.,H26,t_acc.,H30,t_acc.
1981-08-28 15:00:32.600 ,3,0,0.,24.0,0.,24.0,0.,24.0,0.,24.0
1981-08-28 15:00:56.600 ,4,1,1.,24.0,0.,24.0,0.,24.0,0.,24.0
1981-08-28 15:01:20.600 ,4,0,0.,24.0,0.,24.0,0.,24.0,0.,24.0
1981-08-28 15:01:44.600 ,5,1,0.,24.0,0.,24.0,0.,24.0,0.,24.0
1981-08-28 15:02:08.600 ,5,0,0.,24.0,0.,24.0,0.,24.0,0.,24.0
1981-08-28 15:02:32.600 ,6,1,0.,24.0,0.,24.0,0.,24.0,0.,24.0
1981-08-28 15:02:56.600 ,6,0,0.,24.0,0.,24.0,0.,24.0,0.,24.0
1981-08-28 15:03:20.600 ,7,1,0.,24.0,0.,24.0,0.,24.0,0.,24.0
1981-08-28 15:03:44.600 ,7,0,0.,24.0,0.,24.0,0.,24.0,0.,24.0
1981-08-28 15:04:08.600 ,7,1,0.,24.0,0.,24.0,0.,24.0,0.,24.0
1981-08-28 15:04:32.600 ,6,1,0.,24.0,0.,24.0,0.,24.0,0.,24.0
1981-08-28 15:04:56.600 ,5,1,0.,24.0,0.,24.0,0.,24.0,0.,24.0
1981-08-28 15:05:20.600 ,4,1,0.,24.0,0.,24.0,0.,24.0,0.,24.0
1981-08-28 15:05:44.600 ,3,1,0.,24.0,0.,24.0,0.,24.0,0.,24.0
1981-08-28 15:06:08.600 ,2,1,0.,24.0,0.,24.0,0.,24.0,0.,24.0
1981-08-28 15:06:32.600 ,1,1,0.,24.0,0.,24.0,0.,24.0,0.,24.0
1981-08-28 15:06:56.600 ,0,1,0.,24.0,0.,24.0,0.,24.0,0.,24.0
1981-08-28 15:07:20.600 ,0,1,0.,24.0,0.,24.0,0.,24.0,0.,24.0
1981-08-28 15:07:44.600 ,1,1,0.,24.0,0.,24.0,0.,24.0,0.,24.0
1981-08-28 15:08:08.600 ,2,1,1.,24.0,0.,24.0,0.,24.0,0.,24.0
1981-08-28 15:08:32.600 ,3,1,0.,24.0,0.,24.0,0.,24.0,0.,24.0
1981-08-28 15:08:56.600 ,4,1,0.,24.0,0.,24.0,0.,24.0,0.,24.0
1981-08-28 15:09:20.600 ,5,1,0.,24.0,0.,24.0,0.,24.0,0.,24.0
1981-08-28 15:09:44.600 ,6,1,0.,24.0,0.,24.0,0.,24.0,0.,24.0
1981-08-28 15:10:08.600 ,7,1,0.,24.0,0.,24.0,0.,24.0,0.,24.0
1981-08-28 15:10:32.600 ,7,1,0.,24.0,0.,24.0,0.,24.0,0.,24.0
1981-08-28 15:10:56.600 ,7,0,0.,24.0,0.,24.0,0.,24.0,0.,24.0
1981-08-28 15:11:20.600 ,6,1,0.,24.0,0.,24.0,0.,24.0,0.,24.0
1981-08-28 15:11:44.600 ,6,0,0.,24.0,0.,24.0,0.,24.0,0.,24.0
1981-08-28 15:12:08.600 ,5,1,0.,24.0,0.,24.0,0.,24.0,0.,24.0
1981-08-28 15:12:32.600 ,5,0,0.,24.0,0.,24.0,0.,24.0,0.,24.0
1981-08-28 15:12:56.600 ,4,1,0.,24.0,0.,24.0,0.,24.0,0.,24.0
1981-08-28 15:13:20.600 ,4,0,0.,24.0,0.,24.0,0.,24.0,0.,24.0
1981-08-28 15:13:44.600 ,3,1,0.,24.0,0.,24.0,0.,24.0,0.,24.0
1981-08-28 15:14:08.600 ,3,0,0.,24.0,0.,24.0,0.,24.0,0.,24.0
1981-08-28 15:14:32.600 ,2,1,0.,24.0,0.,24.0,0.,24.0,0.,24.0
1981-08-28 15:14:56.600 ,2,0,0.,24.0,0.,24.0,0.,24.0,0.,24.0
1981-08-28 15:15:20.600 ,1,1,0.,24.0,0.,24.0,0.,24.0,0.,24.0
1981-08-28 15:15:44.600 ,1,0,0.,24.0,0.,24.0,0.,24.0,0.,24.0
1981-08-28 15:16:56.600 ,0,0,0.,24.0,0.,24.0,0.,24.0,0.,24.0
1981-08-28 15:17:20.600 ,0,0,0.,24.0,0.,24.0,0.,24.0,0.,24.0
1981-08-28 15:17:44.600 ,1,1,0.,24.0,0.,24.0,0.,24.0,0.,24.0
1981-08-28 15:18:08.600 ,1,0,0.,24.0,0.,24.0,0.,24.0,0.,24.0
1981-08-28 15:18:32.600 ,2,1,0.,24.0,0.,24.0,0.,24.0,0.,24.0
1981-08-28 15:18:56.600 ,2,0,0.,24.0,0.,24.0,0.,24.0,0.,24.0
1981-08-28 15:19:20.600 ,3,1,0.,24.0,0.,24.0,0.,24.0,0.,24.0
1981-08-28 15:19:44.600 ,3,0,0.,24.0,0.,24.0,0.,24.0,0.,24.0
1981-08-28 15:20:08.600 ,4,1,0.,24.0,0.,24.0,0.,24.0,0.,24.0
1981-08-28 15:20:32.600 ,4,0,0.,24.0,0.,24.0,0.,24.0,0.,24.0
1981-08-28 15:20:56.600 ,5,1,0.,24.0,0.,24.0,0.,24.0,0.,24.0
1981-08-28 15:21:20.600 ,5,0,0.,24.0,0.,24.0,0.,24.0,0.,24.0
1981-08-28 15:21:44.600 ,6,1,0.,24.0,0.,24.0,0.,24.0,0.,24.0
1981-08-28 15:22:08.600 ,6,0,0.,24.0,0.,24.0,0.,24.0,0.,24.0
1981-08-28 15:22:32.600 ,7,1,0.,24.0,0.,24.0,0.,24.0,0.,24.0
1981-08-28 15:22:56.600 ,7,0,0.,24.0,0.,24.0,0.,24.0,0.,24.0
1981-08-28 15:23:20.600 ,7,1,0.,24.0,0.,24.0,0.,24.0,0.,24.0
1981-08-28 15:23:44.600 ,6,1,0.,24.0,0.,24.0,0.,24.0,0.,24.0
1981-08-28 15:24:08.600 ,5,1,0.,24.0,0.,24.0,0.,24.0,0.,24.0
1981-08-28 15:24:32.600 ,4,1,0.,24.0,0.,24.0,0.,24.0,0.,24.0
1981-08-28 15:24:56.600 ,3,1,0.,24.0,0.,24.0,0.,24.0,0.,24.0
1981-08-28 15:25:20.600 ,2,1,0.,24.0,0.,24.0,0.,24.0,0.,24.0
1981-08-28 15:25:44.600 ,1,1,0.,24.0,0.,24.0,0.,24.0,0.,24.0
1981-08-28 15:26:08.600 ,0,1,0.,24.0,0.,24.0,0.,24.0,0.,24.0
1981-08-28 15:26:32.600 ,0,1,0.,24.0,0.,24.0,0.,24.0,0.,24.0
1981-08-28 15:26:56.600 ,1,1,0.,24.0,0.,24.0,0.,24.0,0.,24.0
1981-08-28 15:27:20.600 ,2,1,0.,24.0,0.,24.0,0.,24.0,0.,24.0
1981-08-28 15:27:44.600 ,3,1,0.,24.0,0.,24.0,0.,24.0,0.,24.0
1981-08-28 15:28:08.600 ,4,1,0.,24.0,0.,24.0,0.,24.0,0.,24.0
1981-08-28 15:28:32.600 ,5,1,0.,24.0,0.,24.0,0.,24.0,0.,24.0
1981-08-28 15:28:56.600 ,6,1,0.,24.0,0.,24.0,0.,24.0,0.,24.0
1981-08-28 15:29:20.600 ,7,1,0.,24.0,0.,24.0,0.,24.0,0.,24.0
1981-08-28 15:29:44.600 ,7,1,0.,24.0,0.,24.0,0.,24.0,0.,24.0
1981-08-28 15:30:08.600 ,7,0,0.,24.0,0.,24.0,0.,24.0,0.,24.0
1981-08-28 15:30:32.600 ,6,1,0.,24.0,0.,24.0,0.,24.0,0.,24.0
1981-08-28 15:30:56.600 ,6,0,0.,24.0,0.,24.0,0.,24.0,0.,24.0
1981-08-28 15:31:20.600 ,5,1,0.,24.0,0.,24.0,0.,24.0,0.,24.0
1981-08-28 15:31:44.600 ,5,0,0.,24.0,0.,24.0,0.,24.0,0.,24.0
1981-08-28 15:32:08.600 ,4,1,0.,24.0,0.,24.0,0.,24.0,0.,24.0
1981-08-28 15:32:32.600 ,4,0,0.,24.0,0.,24.0,0.,24.0,0.,24.0
1981-08-28 15:32:56.600 ,3,1,0.,24.0,0.,24.0,0.,24.0,0.,24.0
1981-08-28 15:33:20.600 ,3,0,0.,24.0,0.,24.0,0.,24.0,0.,24.0
1981-08-28 15:33:44.600 ,2,1,0.,24.0,0.,24.0,0.,24.0,0.,24.0
1981-08-28 15:34:08.600 ,2,0,0.,24.0,0.,24.0,0.,24.0,0.,24.0
1981-08-28 15:34:32.600 ,1,1,0.,24.0,0.,24.0,0.,24.0,0.,24.0
1981-08-28 15:34:56.600 ,1,0,0.,24.0,0.,24.0,0.,24.0,0.,24.0
1981-08-28 15:35:20.600 ,0,1,0.,24.0,0.,24.0,0.,24.0,0.,24.0
1981-08-28 15:35:44.600 ,0,0,0.,24.0,0.,24.0,0.,24.0,0.,24.0
1981-08-28 15:36:08.600 ,0,1,0.,24.0,0.,24.0,0.,24.0,0.,24.0
1981-08-28 15:36:32.600 ,0,0,0.,24.0,0.,24.0,0.,24.0,0.,24.0
1981-08-28 15:36:56.590 ,1,1,0.,24.0,0.,24.0,0.,24.0,0.,24.0
1981-08-28 15:37:20.590 ,1,0,0.,24.0,0.,24.0,0.,24.0,0.,24.0
1981-08-28 15:37:44.590 ,2,1,0.,24.0,0.,24.0,0.,24.0,0.,24.0
1981-08-28 15:38:08.590 ,2,0,0.,24.0,0.,24.0,0.,24.0,0.,24.0
1981-08-28 15:38:32.590 ,3,1,0.,24.0,0.,24.0,0.,24.0,0.,24.0
1981-08-28 15:38:56.590 ,3,0,0.,24.0,0.,24.0,0.,24.0,0.,24.0
1981-08-28 15:39:20.590 ,4,1,0.,24.0,0.,24.0,0.,24.0,0.,24.0
1981-08-28 15:39:44.590 ,4,0,0.,24.0,0.,24.0,0.,24.0,0.,24.0
1981-08-28 15:40:08.590 ,5,1,0.,24.0,0.,24.0,0.,24.0,0.,24.0
1981-08-28 15:40:32.590 ,5,0,0.,24.0,0.,24.0,0.,24.0,0.,24.0
1981-08-28 15:40:56.590 ,6,1,0.,24.0,0.,24.0,0.,24.0,0.,24.0
1981-08-28 15:41:20.590 ,6,0,0.,24.0,0.,24.0,0.,24.0,0.,24.0
1981-08-28 15:41:44.590 ,7,1,0.,24.0,0.,24.0,0.,24.0,0.,24.0
1981-08-28 15:42:08.590 ,7,0,0.,24.0,0.,24.0,0.,24.0,0.,24.0
1981-08-28 15:42:32.590 ,7,1,0.,24.0,0.,24.0,0.,24.0,0.,24.0
1981-08-28 15:42:56.590 ,6,1,0.,24.0,0.,24.0,0.,24.0,0.,24.0
1981-08-28 15:43:20.590 ,5,1,0.,24.0,0.,24.0,0.,24.0,0.,24.0
1981-08-28 15:43:44.590 ,4,1,0.,24.0,0.,24.0,0.,24.0,0.,24.0
1981-08-28 15:44:08.590 ,3,1,0.,24.0,0.,24.0,0.,24.0,0.,24.0
1981-08-28 15:44:32.590 ,2,1,0.,24.0,0.,24.0,0.,24.0,0.,24.0
1981-08-28 15:44:56.590 ,1,1,0.,24.0,0.,24.0,0.,24.0,0.,24.0
1981-08-28 15:45:20.590 ,0,1,0.,24.0,0.,24.0,0.,24.0,0.,24.0
1981-08-28 15:45:44.590 ,0,1,0.,24.0,0.,24.0,0.,24.0,0.,24.0
1981-08-28 15:46:08.590 ,1,1,0.,24.0,0.,24.0,0.,24.0,0.,24.0
1981-08-28 15:46:32.590 ,2,1,0.,24.0,0.,24.0,0.,24.0,0.,24.0
1981-08-28 15:46:56.590 ,3,1,0.,24.0,0.,24.0,0.,24.0,0.,24.0
1981-08-28 15:47:20.590 ,4,1,0.,24.0,0.,24.0,0.,24.0,0.,24.0
1981-08-28 15:47:44.590 ,5,1,0.,24.0,0.,24.0,0.,24.0,0.,24.0
1981-08-28 15:48:08.590 ,6,1,0.,24.0,0.,24.0,0.,24.0,0.,24.0
1981-08-28 15:48:32.590 ,7,1,0.,24.0,0.,24.0,0.,24.0,0.,24.0
1981-08-28 15:48:56.590 ,7,1,0.,24.0,0.,24.0,0.,24.0,0.,24.0
1981-08-28 15:49:20.590 ,7,0,0.,24.0,0.,24.0,0.,24.0,0.,24.0
1981-08-28 15:49:44.590 ,6,1,0.,24.0,0.,24.0,0.,24.0,0.,24.0
1981-08-28 15:50:08.590 ,6,0,0.,24.0,0.,24.0,0.,24.0,0.,24.0
1981-08-28 15:50:32.590 ,5,1,0.,24.0,0.,24.0,0.,24.0,0.,24.0
1981-08-28 15:50:56.590 ,5,0,0.,24.0,0.,24.0,0.,24.0,0.,24.0
1981-08-28 15:51:20.590 ,4,1,0.,24.0,0.,24.0,0.,24.0,0.,24.0
1981-08-28 15:51:44.590 ,4,0,0.,24.0,0.,24.0,0.,24.0,0.,24.0
1981-08-28 15:52:08.590 ,3,1,0.,24.0,0.,24.0,0.,24.0,0.,24.0
1981-08-28 15:52:32.590 ,3,0,0.,24.0,0.,24.0,0.,24.0,0.,24.0
1981-08-28 15:52:56.590 ,2,1,0.,24.0,0.,24.0,0.,24.0,0.,24.0
1981-08-28 15:53:20.590 ,2,0,0.,24.0,0.,24.0,0.,24.0,0.,24.0
1981-08-28 15:53:44.590 ,1,1,0.,24.0,0.,24.0,0.,24.0,0.,24.0
1981-08-28 15:54:08.590 ,1,0,0.,24.0,0.,24.0,0.,24.0,0.,24.0
1981-08-28 15:54:32.590 ,0,1,0.,24.0,0.,24.0,0.,24.0,0.,24.0
1981-08-28 15:54:56.590 ,0,0,0.,24.0,0.,24.0,0.,24.0,0.,24.0
1981-08-28 15:55:20.590 ,0,1,0.,24.0,0.,24.0,0.,24.0,0.,24.0
1981-08-28 15:55:44.590 ,0,0,0.,24.0,0.,24.0,0.,24.0,0.,24.0
1981-08-28 15:56:08.590 ,1,1,0.,24.0,0.,24.0,0.,24.0,0.,24.0
1981-08-28 15:56:32.590 ,1,0,0.,24.0,0.,24.0,0.,24.0,0.,24.0
1981-08-28 15:56:56.590 ,0,0,0.,24.0,0.,24.0,0.,24.0,0.,24.0
1981-08-28 15:57:20.590 ,0,0,0.,24.0,0.,24.0,0.,24.0,0.,24.0
1981-08-28 15:57:44.590 ,3,1,0.,24.0,0.,24.0,0.,24.0,0.,24.0
1981-08-28 15:58:08.590 ,3,0,0.,24.0,0.,24.0,0.,24.0,0.,24.0
1981-08-28 15:58:32.590 ,4,1,0.,24.0,0.,24.0,0.,24.0,0.,24.0
1981-08-28 15:58:56.590 ,4,0,0.,24.0,0.,24.0,0.,24.0,0.,24.0
1981-08-28 15:59:20.590 ,5,1,0.,24.0,0.,24.0,0.,24.0,0.,24.0
1981-08-28 15:59:44.590 ,0,0,,0,,0,,0,,0
1981-08-28 16:04:24.790 ,0,0,,0,,0,,0,,0
1981-08-28 16:04:32.590 ,0,1,0.,24.0,0.,24.0,0.,24.0,0.,24.0
1981-08-28 16:04:56.590 ,0,1,1.,24.0,0.,24.0,0.,24.0,0.,24.0
1981-08-28 16:05:20.590 ,1,1,0.,24.0,0.,24.0,0.,24.0,0.,24.0
1981-08-28 16:05:44.590 ,2,1,0.,24.0,0.,24.0,0.,24.0,0.,24.0
1981-08-28 16:06:08.590 ,0,0,0.,24.0,0.,24.0,0.,24.0,0.,24.0
1981-08-28 16:06:21.790 ,3,0,,0,,0,,0,,0
1981-08-28 16:06:32.590 ,4,1,0.,24.0,0.,24.0,0.,24.0,0.,24.0
1981-08-28 16:06:56.590 ,5,1,0.,24.0,0.,24.0,0.,24.0,0.,24.0
1981-08-28 16:07:20.590 ,6,1,1.,24.0,0.,24.0,0.,24.0,0.,24.0
1981-08-28 16:07:44.590 ,7,1,0.,24.0,0.,24.0,0.,24.0,0.,24.0
1981-08-28 16:08:08.590 ,7,0,,0,,0,,0,,0
1981-08-28 16:08:32.590 ,7,0,0.,24.0,0.,24.0,0.,24.0,0.,24.0
1981-08-28 16:08:56.590 ,6,1,0.,24.0,0.,24.0,0.,24.0,0.,24.0
1981-08-28 16:09:20.590 ,6,0,0.,24.0,0.,24.0,0.,24.0,0.,24.0
1981-08-28 16:09:44.590 ,5,1,0.,24.0,0.,24.0,0.,24.0,0.,24.0
1981-08-28 16:10:08.590 ,5,0,0.,24.0,0.,24.0,0.,24.0,0.,24.0
1981-08-28 16:10:32.590 ,4,1,0.,24.0,0.,24.0,0.,24.0,0.,24.0
1981-08-28 16:10:56.590 ,4,0,0.,24.0,0.,24.0,0.,24.0,0.,24.0
1981-08-28 16:11:20.590 ,3,1,0.,24.0,0.,24.0,0.,24.0,0.,24.0
1981-08-28 16:11:44.590 ,3,0,0.,24.0,0.,24.0,0.,24.0,0.,24.0
1981-08-28 16:12:08.590 ,2,1,0.,24.0,0.,24.0,0.,24.0,0.,24.0
1981-08-28 16:12:32.590 ,2,0,0.,24.0,0.,24.0,0.,24.0,0.,24.0
1981-08-28 16:12:56.590 ,1,1,0.,24.0,0.,24.0,0.,24.0,0.,24.0
1981-08-28 16:13:20.590 ,1,0,0.,24.0,0.,24.0,0.,24.0,0.,24.0
1981-08-28 16:13:44.590 ,0,1,0.,24.0,0.,24.0,0.,24.0,0.,24.0
1981-08-28 16:14:08.590 ,0,0,0.,24.0,0.,24.0,0.,24.0,0.,24.0
1981-08-28 16:14:32.590 ,0,1,0.,24.0,0.,24.0,0.,24.0,0.,24.0
1981-08-28 16:14:56.590 ,0,0,0.,24.0,0.,24.0,0.,24.0,0.,24.0
1981-08-28 16:15:20.590 ,1,1,0.,24.0,0.,24.0,0.,24.0,0.,24.0
1981-08-28 16:15:44.590 ,1,0,0.,24.0,0.,24.0,0.,24.0,0.,24.0
1981-08-28 16:16:08.590 ,2,1,0.,24.0,0.,24.0,0.,24.0,0.,24.0
1981-08-28 16:16:32.590 ,2,0,0.,24.0,0.,24.0,0.,24.0,0.,24.0
1981-08-28 16:16:56.590 ,3,1,0.,24.0,0.,24.0,0.,24.0,0.,24.0
1981-08-28 16:17:20.590 ,3,0,0.,24.0,0.,24.0,0.,24.0,0.,24.0
1981-08-28 16:17:44.590 ,4,1,0.,24.0,0.,24.0,0.,24.0,0.,24.0
1981-08-28 16:18:08.590 ,4,0,0.,24.0,0.,24.0,0.,24.0,0.,24.0
1981-08-28 16:18:32.590 ,5,1,0.,24.0,0.,24.0,0.,24.0,0.,24.0
1981-08-28 16:18:56.590 ,5,0,0.,24.0,0.,24.0,0.,24.0,0.,24.0
1981-08-28 16:19:20.590 ,6,1,0.,24.0,0.,24.0,0.,24.0,0.,24.0
1981-08-28 16:19:44.590 ,6,0,0.,24.0,0.,24.0,0.,24.0,0.,24.0
1981-08-28 16:20:08.590 ,7,1,0.,24.0,0.,24.0,0.,24.0,0.,24.0
1981-08-28 16:20:32.590 ,7,0,0.,24.0,0.,24.0,0.,24.0,0.,24.0
1981-08-28 16:20:56.590 ,7,1,0.,24.0,0.,24.0,0.,24.0,0.,24.0
1981-08-28 16:21:20.590 ,6,1,0.,24.0,0.,24.0,0.,24.0,0.,24.0
1981-08-28 16:21:44.590 ,5,1,0.,24.0,0.,24.0,0.,24.0,0.,24.0
1981-08-28 16:22:08.590 ,4,1,0.,24.0,0.,24.0,0.,24.0,0.,24.0
1981-08-28 16:22:32.590 ,0,0,0.,24.0,0.,24.0,0.,24.0,0.,24.0
1981-08-28 16:22:56.590 ,2,1,0.,24.0,0.,24.0,0.,24.0,0.,24.0
1981-08-28 16:23:20.590 ,1,1,0.,24.0,0.,24.0,0.,24.0,0.,24.0
1981-08-28 16:23:44.590 ,0,1,0.,24.0,0.,24.0,0.,24.0,0.,24.0
1981-08-28 16:24:08.590 ,0,1,0.,24.0,0.,24.0,0.,24.0,0.,24.0
1981-08-28 16:24:32.590 ,1,1,0.,24.0,0.,24.0,0.,24.0,0.,24.0
1981-08-28 16:24:56.590 ,2,1,0.,24.0,0.,24.0,0.,24.0,0.,24.0
1981-08-28 16:25:20.590 ,3,1,0.,24.0,0.,24.0,0.,24.0,0.,24.0
1981-08-28 16:25:44.590 ,4,1,0.,24.0,0.,24.0,0.,24.0,0.,24.0
1981-08-28 16:26:08.590 ,5,1,0.,24.0,0.,24.0,0.,24.0,0.,24.0
1981-08-28 16:26:32.590 ,6,1,0.,24.0,0.,24.0,0.,24.0,0.,24.0
1981-08-28 16:26:56.590 ,7,1,0.,24.0,0.,24.0,0.,24.0,0.,24.0
1981-08-28 16:27:20.590 ,7,1,0.,24.0,0.,24.0,0.,24.0,0.,24.0
1981-08-28 16:27:44.590 ,7,0,0.,24.0,0.,24.0,0.,24.0,0.,24.0
1981-08-28 16:28:08.590 ,6,1,0.,24.0,0.,24.0,0.,24.0,0.,24.0
1981-08-28 16:28:32.590 ,6,0,0.,24.0,0.,24.0,0.,24.0,0.,24.0
1981-08-28 16:28:56.590 ,5,1,0.,24.0,0.,24.0,0.,24.0,0.,24.0
1981-08-28 16:29:20.590 ,5,0,0.,24.0,0.,24.0,0.,24.0,0.,24.0
1981-08-28 16:29:44.590 ,4,1,0.,24.0,0.,24.0,0.,24.0,0.,24.0
1981-08-28 16:30:08.590 ,4,0,0.,24.0,0.,24.0,0.,24.0,0.,24.0
1981-08-28 16:30:32.590 ,3,1,0.,24.0,0.,24.0,0.,24.0,0.,24.0
1981-08-28 16:30:56.590 ,3,0,0.,24.0,0.,24.0,0.,24.0,0.,24.0
1981-08-28 16:31:20.590 ,2,1,0.,24.0,0.,24.0,0.,24.0,0.,24.0
1981-08-28 16:31:44.590 ,2,0,0.,24.0,0.,24.0,0.,24.0,0.,24.0
1981-08-28 16:32:08.590 ,1,1,0.,24.0,0.,24.0,0.,24.0,0.,24.0
1981-08-28 16:32:32.590 ,1,0,0.,24.0,0.,24.0,0.,24.0,0.,24.0
1981-08-28 16:32:56.590 ,0,1,0.,24.0,0.,24.0,0.,24.0,0.,24.0
1981-08-28 16:33:20.590 ,0,0,0.,24.0,0.,24.0,0.,24.0,0.,24.0
1981-08-28 16:33:44.590 ,0,1,0.,24.0,0.,24.0,0.,24.0,0.,24.0
1981-08-28 16:34:08.590 ,0,0,0.,24.0,0.,24.0,0.,24.0,0.,24.0
1981-08-28 16:34:32.590 ,1,1,1.,24.0,0.,24.0,0.,24.0,0.,24.0
1981-08-28 16:34:56.590 ,1,0,0.,24.0,0.,24.0,0.,24.0,0.,24.0
1981-08-28 16:35:20.590 ,2,1,0.,24.0,0.,24.0,0.,24.0,0.,24.0
1981-08-28 16:35:44.590 ,2,0,0.,24.0,0.,24.0,0.,24.0,0.,24.0
1981-08-28 16:36:08.590 ,3,1,0.,24.0,0.,24.0,0.,24.0,0.,24.0
1981-08-28 16:36:32.590 ,3,0,0.,24.0,0.,24.0,0.,24.0,0.,24.0
1981-08-28 16:36:56.590 ,4,1,0.,24.0,0.,24.0,0.,24.0,0.,24.0
1981-08-28 16:37:20.590 ,4,0,0.,24.0,0.,24.0,0.,24.0,0.,24.0
1981-08-28 16:37:44.590 ,5,1,0.,24.0,0.,24.0,0.,24.0,0.,24.0
1981-08-28 16:38:08.590 ,5,0,0.,24.0,0.,24.0,0.,24.0,0.,24.0
1981-08-28 16:38:32.590 ,6,1,0.,24.0,0.,24.0,0.,24.0,0.,24.0
1981-08-28 16:38:56.590 ,6,0,0.,24.0,0.,24.0,0.,24.0,0.,24.0
1981-08-28 16:39:20.590 ,7,1,0.,24.0,0.,24.0,0.,24.0,0.,24.0
1981-08-28 16:39:44.590 ,7,0,0.,24.0,0.,24.0,0.,24.0,0.,24.0
1981-08-28 16:40:08.590 ,7,1,0.,24.0,0.,24.0,0.,24.0,0.,24.0
1981-08-28 16:40:32.590 ,6,1,0.,24.0,0.,24.0,0.,24.0,0.,24.0
1981-08-28 16:40:56.590 ,5,1,0.,24.0,0.,24.0,0.,24.0,0.,24.0
1981-08-28 16:41:20.590 ,4,1,0.,24.0,0.,24.0,0.,24.0,0.,24.0
1981-08-28 16:41:44.590 ,3,1,0.,24.0,0.,24.0,0.,24.0,0.,24.0
1981-08-28 16:42:08.590 ,2,1,1.,24.0,0.,24.0,0.,24.0,0.,24.0
1981-08-28 16:42:32.590 ,1,1,0.,24.0,0.,24.0,0.,24.0,0.,24.0
1981-08-28 16:42:56.590 ,0,1,0.,24.0,0.,24.0,0.,24.0,0.,24.0
1981-08-28 16:43:20.590 ,0,1,0.,24.0,0.,24.0,0.,24.0,0.,24.0
1981-08-28 16:43:44.590 ,1,1,0.,24.0,0.,24.0,0.,24.0,0.,24.0
1981-08-28 16:44:08.590 ,2,1,0.,24.0,0.,24.0,0.,24.0,0.,24.0
1981-08-28 16:44:32.590 ,3,1,0.,24.0,0.,24.0,0.,24.0,0.,24.0
1981-08-28 16:44:56.590 ,4,1,0.,24.0,0.,24.0,0.,24.0,0.,24.0
1981-08-28 16:45:20.590 ,5,1,0.,24.0,0.,24.0,0.,24.0,0.,24.0
1981-08-28 16:45:44.590 ,6,1,0.,24.0,0.,24.0,0.,24.0,0.,24.0
1981-08-28 16:46:08.590 ,7,1,0.,24.0,0.,24.0,0.,24.0,0.,24.0
1981-08-28 16:46:32.590 ,7,1,0.,24.0,0.,24.0,0.,24.0,0.,24.0
1981-08-28 16:46:56.590 ,7,0,0.,24.0,0.,24.0,0.,24.0,0.,24.0
1981-08-28 16:47:20.590 ,6,1,0.,24.0,0.,24.0,0.,24.0,0.,24.0
1981-08-28 16:47:44.590 ,6,0,0.,24.0,0.,24.0,0.,24.0,0.,24.0
1981-08-28 16:48:08.590 ,5,1,0.,24.0,0.,24.0,0.,24.0,0.,24.0
1981-08-28 16:48:32.590 ,5,0,0.,24.0,0.,24.0,0.,24.0,0.,24.0
1981-08-28 16:48:56.590 ,4,1,0.,24.0,0.,24.0,0.,24.0,0.,24.0
1981-08-28 16:49:20.590 ,4,0,0.,24.0,0.,24.0,0.,24.0,0.,24.0
1981-08-28 16:49:44.590 ,3,1,0.,24.0,0.,24.0,0.,24.0,0.,24.0
1981-08-28 16:50:08.590 ,3,0,0.,24.0,0.,24.0,0.,24.0,0.,24.0
1981-08-28 16:50:32.590 ,2,1,0.,24.0,0.,24.0,0.,24.0,0.,24.0
1981-08-28 16:50:56.590 ,2,0,0.,24.0,0.,24.0,0.,24.0,0.,24.0
1981-08-28 16:51:20.590 ,1,1,0.,24.0,0.,24.0,0.,24.0,0.,24.0
1981-08-28 16:51:44.590 ,1,0,0.,24.0,0.,24.0,0.,24.0,0.,24.0
1981-08-28 16:52:08.590 ,0,1,0.,24.0,0.,24.0,0.,24.0,0.,24.0
1981-08-28 16:52:32.590 ,0,0,0.,24.0,0.,24.0,0.,24.0,0.,24.0
1981-08-28 16:52:56.590 ,0,1,0.,24.0,0.,24.0,0.,24.0,0.,24.0
1981-08-28 16:53:20.590 ,0,0,0.,24.0,0.,24.0,0.,24.0,0.,24.0
1981-08-28 16:53:44.590 ,1,1,0.,24.0,0.,24.0,0.,24.0,0.,24.0
1981-08-28 16:54:08.590 ,1,0,0.,24.0,0.,24.0,0.,24.0,0.,24.0
1981-08-28 16:54:32.590 ,2,1,0.,24.0,0.,24.0,0.,24.0,0.,24.0
1981-08-28 16:54:56.590 ,2,0,0.,24.0,0.,24.0,0.,24.0,0.,24.0
1981-08-28 16:55:20.590 ,3,1,0.,24.0,0.,24.0,0.,24.0,0.,24.0
1981-08-28 16:55:44.590 ,3,0,0.,24.0,0.,24.0,0.,24.0,0.,24.0
1981-08-28 16:56:08.590 ,4,1,0.,24.0,0.,24.0,0.,24.0,0.,24.0
1981-08-28 16:56:32.590 ,4,0,0.,24.0,0.,24.0,0.,24.0,0.,24.0
1981-08-28 16:56:56.590 ,5,1,0.,24.0,0.,24.0,0.,24.0,0.,24.0
1981-08-28 16:57:20.590 ,5,0,0.,24.0,0.,24.0,0.,24.0,0.,24.0
1981-08-28 16:57:44.590 ,6,1,0.,24.0,0.,24.0,0.,24.0,0.,24.0
1981-08-28 16:58:08.590 ,6,0,0.,24.0,0.,24.0,0.,24.0,0.,24.0
1981-08-28 16:58:32.590 ,7,1,0.,24.0,0.,24.0,0.,24.0,0.,24.0
1981-08-28 16:58:56.590 ,7,0,0.,24.0,0.,24.0,0.,24.0,0.,24.0
1981-08-28 16:59:20.590 ,7,1,0.,24.0,0.,24.0,0.,24.0,0.,24.0
1981-08-28 16:59:44.590 ,6,1,0.,24.0,0.,24.0,0.,24.0,0.,24.0
1981-08-28 17:00:08.590 ,5,1,0.,24.0,0.,24.0,0.,24.0,0.,24.0
1981-08-28 17:00:32.590 ,4,1,0.,24.0,0.,24.0,0.,24.0,0.,24.0
1981-08-28 17:00:56.590 ,3,1,0.,24.0,0.,24.0,0.,24.0,0.,24.0
1981-08-28 17:01:20.590 ,2,1,0.,24.0,0.,24.0,0.,24.0,0.,24.0
1981-08-28 17:01:44.590 ,1,1,0.,24.0,0.,24.0,0.,24.0,0.,24.0
1981-08-28 17:02:08.590 ,0,1,0.,24.0,0.,24.0,0.,24.0,0.,24.0
1981-08-28 17:02:32.590 ,0,1,0.,24.0,0.,24.0,0.,24.0,0.,24.0
1981-08-28 17:02:56.590 ,1,1,0.,24.0,0.,24.0,0.,24.0,0.,24.0
1981-08-28 17:03:20.590 ,2,1,0.,24.0,0.,24.0,0.,24.0,0.,24.0
1981-08-28 17:03:44.590 ,3,1,0.,24.0,0.,24.0,0.,24.0,0.,24.0
1981-08-28 17:04:08.590 ,4,1,0.,24.0,0.,24.0,0.,24.0,0.,24.0
1981-08-28 17:04:32.590 ,5,1,0.,24.0,0.,24.0,0.,24.0,0.,24.0
1981-08-28 17:04:56.590 ,6,1,0.,24.0,0.,24.0,0.,24.0,0.,24.0
1981-08-28 17:05:20.590 ,7,1,0.,24.0,0.,24.0,0.,24.0,0.,24.0
1981-08-28 17:05:44.590 ,7,1,0.,24.0,0.,24.0,0.,24.0,0.,24.0
1981-08-28 17:06:08.590 ,7,0,0.,24.0,0.,24.0,0.,24.0,0.,24.0
1981-08-28 17:06:32.590 ,6,1,0.,24.0,0.,24.0,0.,24.0,0.,24.0
1981-08-28 17:06:56.590 ,6,0,0.,24.0,0.,24.0,0.,24.0,0.,24.0
1981-08-28 17:07:20.590 ,5,1,0.,24.0,0.,24.0,0.,24.0,0.,24.0
1981-08-28 17:07:44.590 ,5,0,0.,24.0,0.,24.0,0.,24.0,0.,24.0
1981-08-28 17:08:08.590 ,4,1,0.,24.0,0.,24.0,0.,24.0,0.,24.0
1981-08-28 17:08:32.590 ,4,0,1.,24.0,0.,24.0,0.,24.0,0.,24.0
1981-08-28 17:08:56.590 ,3,1,0.,24.0,0.,24.0,0.,24.0,0.,24.0
1981-08-28 17:09:20.590 ,3,0,0.,24.0,0.,24.0,0.,24.0,0.,24.0
1981-08-28 17:09:44.590 ,2,1,0.,24.0,0.,24.0,0.,24.0,0.,24.0
1981-08-28 17:10:08.590 ,2,0,0.,24.0,0.,24.0,0.,24.0,0.,24.0
1981-08-28 17:10:32.590 ,1,1,0.,24.0,0.,24.0,0.,24.0,0.,24.0
1981-08-28 17:10:56.590 ,1,0,0.,24.0,0.,24.0,0.,24.0,0.,24.0
1981-08-28 17:11:20.590 ,0,1,0.,24.0,0.,24.0,0.,24.0,0.,24.0
1981-08-28 17:11:44.590 ,0,0,0.,24.0,0.,24.0,0.,24.0,0.,24.0
1981-08-28 17:12:08.590 ,0,1,0.,24.0,0.,24.0,0.,24.0,0.,24.0
1981-08-28 17:12:32.590 ,0,0,0.,24.0,0.,24.0,0.,24.0,0.,24.0
1981-08-28 17:12:56.590 ,1,1,0.,24.0,0.,24.0,0.,24.0,0.,24.0
1981-08-28 17:13:20.590 ,1,0,0.,24.0,0.,24.0,0.,24.0,0.,24.0
1981-08-28 17:13:44.590 ,2,1,0.,24.0,0.,24.0,0.,24.0,0.,24.0
1981-08-28 17:14:08.590 ,2,0,0.,24.0,0.,24.0,0.,24.0,0.,24.0
1981-08-28 17:14:32.590 ,3,1,0.,24.0,0.,24.0,0.,24.0,0.,24.0
1981-08-28 17:14:56.590 ,3,0,0.,24.0,0.,24.0,0.,24.0,0.,24.0
1981-08-28 17:15:20.590 ,4,1,0.,24.0,0.,24.0,0.,24.0,0.,24.0
1981-08-28 17:15:44.590 ,4,0,0.,24.0,0.,24.0,0.,24.0,0.,24.0
1981-08-28 17:16:08.590 ,5,1,0.,24.0,0.,24.0,0.,24.0,0.,24.0
1981-08-28 17:16:32.590 ,5,0,0.,24.0,0.,24.0,0.,24.0,0.,24.0
1981-08-28 17:16:56.590 ,6,1,0.,24.0,0.,24.0,0.,24.0,0.,24.0
1981-08-28 17:17:20.590 ,6,0,0.,24.0,0.,24.0,0.,24.0,0.,24.0
1981-08-28 17:17:44.590 ,7,1,0.,24.0,0.,24.0,0.,24.0,0.,24.0
1981-08-28 17:18:08.590 ,7,0,0.,24.0,0.,24.0,0.,24.0,0.,24.0
1981-08-28 17:18:32.590 ,7,1,0.,24.0,0.,24.0,0.,24.0,0.,24.0
1981-08-28 17:18:56.590 ,6,1,0.,24.0,0.,24.0,0.,24.0,0.,24.0
1981-08-28 17:19:20.590 ,5,1,0.,24.0,0.,24.0,0.,24.0,0.,24.0
1981-08-28 17:19:44.590 ,4,1,0.,24.0,0.,24.0,0.,24.0,0.,24.0
1981-08-28 17:20:08.590 ,3,1,0.,24.0,0.,24.0,0.,24.0,0.,24.0
1981-08-28 17:20:32.590 ,2,1,0.,24.0,0.,24.0,0.,24.0,0.,24.0
1981-08-28 17:20:56.590 ,1,1,0.,24.0,0.,24.0,0.,24.0,0.,24.0
1981-08-28 17:21:20.590 ,0,1,0.,24.0,0.,24.0,0.,24.0,0.,24.0
1981-08-28 17:21:44.590 ,0,1,0.,24.0,0.,24.0,0.,24.0,0.,24.0
1981-08-28 17:22:08.590 ,1,1,0.,24.0,0.,24.0,0.,24.0,0.,24.0
1981-08-28 17:22:32.590 ,2,1,0.,24.0,0.,24.0,0.,24.0,0.,24.0
1981-08-28 17:22:56.590 ,3,1,0.,24.0,0.,24.0,0.,24.0,0.,24.0
1981-08-28 17:23:20.590 ,4,1,0.,24.0,0.,24.0,0.,24.0,0.,24.0
1981-08-28 17:23:44.590 ,5,1,0.,24.0,0.,24.0,0.,24.0,0.,24.0
1981-08-28 17:24:08.590 ,6,1,0.,24.0,0.,24.0,0.,24.0,0.,24.0
1981-08-28 17:24:32.590 ,7,1,1.,24.0,0.,24.0,0.,24.0,0.,24.0
1981-08-28 17:24:56.590 ,7,1,0.,24.0,0.,24.0,0.,24.0,0.,24.0
1981-08-28 17:25:20.590 ,7,0,0.,24.0,0.,24.0,0.,24.0,0.,24.0
1981-08-28 17:25:44.590 ,6,1,0.,24.0,0.,24.0,0.,24.0,0.,24.0
1981-08-28 17:26:08.590 ,6,0,0.,24.0,0.,24.0,0.,24.0,0.,24.0
1981-08-28 17:26:32.590 ,5,1,0.,24.0,0.,24.0,0.,24.0,0.,24.0
1981-08-28 17:26:56.590 ,5,0,0.,24.0,0.,24.0,0.,24.0,0.,24.0
1981-08-28 17:27:20.590 ,4,1,0.,24.0,0.,24.0,0.,24.0,0.,24.0
1981-08-28 17:27:44.590 ,4,0,0.,24.0,0.,24.0,0.,24.0,0.,24.0
1981-08-28 17:28:08.590 ,3,1,0.,24.0,0.,24.0,0.,24.0,0.,24.0
1981-08-28 17:28:32.590 ,3,0,0.,24.0,0.,24.0,0.,24.0,0.,24.0
1981-08-28 17:28:56.590 ,2,1,0.,24.0,0.,24.0,0.,24.0,0.,24.0
1981-08-28 17:29:20.590 ,2,0,0.,24.0,0.,24.0,0.,24.0,0.,24.0
1981-08-28 17:29:44.590 ,1,1,0.,24.0,0.,24.0,0.,24.0,0.,24.0
1981-08-28 17:30:08.590 ,1,0,0.,24.0,0.,24.0,0.,24.0,0.,24.0
1981-08-28 17:30:32.590 ,0,1,0.,24.0,0.,24.0,0.,24.0,0.,24.0
1981-08-28 17:30:56.590 ,0,0,0.,24.0,0.,24.0,0.,24.0,0.,24.0
1981-08-28 17:31:20.590 ,0,1,0.,24.0,0.,24.0,0.,24.0,0.,24.0
1981-08-28 17:31:44.590 ,0,0,0.,24.0,0.,24.0,0.,24.0,0.,24.0
1981-08-28 17:32:08.590 ,1,1,0.,24.0,0.,24.0,0.,24.0,0.,24.0
1981-08-28 17:32:32.590 ,1,0,0.,24.0,0.,24.0,0.,24.0,0.,24.0
1981-08-28 17:32:56.590 ,2,1,0.,24.0,0.,24.0,0.,24.0,0.,24.0
1981-08-28 17:33:20.590 ,2,0,0.,24.0,0.,24.0,0.,24.0,0.,24.0
1981-08-28 17:33:44.590 ,3,1,0.,24.0,0.,24.0,0.,24.0,0.,24.0
1981-08-28 17:34:08.590 ,3,0,0.,24.0,0.,24.0,0.,24.0,0.,24.0
1981-08-28 17:34:32.590 ,4,1,0.,24.0,0.,24.0,0.,24.0,0.,24.0
1981-08-28 17:34:56.590 ,0,0,0.,24.0,0.,24.0,0.,24.0,0.,24.0
1981-08-28 17:35:24.790 ,0,0,0.,24.0,0.,24.0,0.,24.0,0.,24.0
1981-08-28 17:35:44.590 ,0,0,0.,24.0,0.,24.0,0.,24.0,0.,24.0
1981-08-28 17:36:08.590 ,6,1,0.,24.0,0.,24.0,0.,24.0,0.,24.0
1981-08-28 17:36:32.590 ,6,0,0.,24.0,0.,24.0,0.,24.0,0.,24.0
1981-08-28 17:36:56.590 ,7,1,0.,24.0,0.,24.0,0.,24.0,0.,24.0
1981-08-28 17:37:20.590 ,7,0,0.,24.0,0.,24.0,0.,24.0,0.,24.0
1981-08-28 17:37:44.590 ,7,1,0.,24.0,0.,24.0,0.,24.0,0.,24.0
1981-08-28 17:38:08.590 ,6,1,0.,24.0,0.,24.0,0.,24.0,0.,24.0
1981-08-28 17:38:32.590 ,5,1,0.,24.0,0.,24.0,0.,24.0,0.,24.0
1981-08-28 17:38:56.590 ,4,1,0.,24.0,0.,24.0,0.,24.0,0.,24.0
1981-08-28 17:39:20.590 ,3,1,1.,24.0,0.,24.0,0.,24.0,0.,24.0